Flag for U.S.A. Weather past 2 weeks in Baltimore, Maryland, U.S.A.

Now
34 °F

Overcast.


Feels Like: 29 °F
Forecast: 29 / 42 °F
Wind: 6 mph from Northwest

Location: Baltimore-Washington International Airport

Current Time: Dec 18, 2014 at 10:26:37 PM

Latest Report: Dec 18, 2014 at 9:54 PM


Visibility: 10 mi

Pressure: 30.09 "Hg

Humidity: 64%

Dew point: 23 °F

Location of BaltimoreLocation

Historic Weather in Baltimore — Graph

°F

Baltimore temperature yesterday

Maximum temperature yesterday: 53 °F (at 11:54 AM)
Minimum temperature yesterday: 36 °F (at 9:54 PM)
Average temperature yesterday: 43 °F

Past Weeks' High & Low Weather Summary

 TemperatureHumidityPressure
High53 °F (Dec 15, 1:54 PM)100% (Dec 16, 6:54 AM)30.59 "Hg (Dec 16, 6:54 AM)
Low28 °F (Dec 13, 4:54 AM)29% (Dec 7, 2:54 PM)29.77 "Hg (Dec 10, 1:54 PM)
Average39 °F69%30.12 "Hg
* Reported Dec 3 8:54 PM — Dec 18 8:54 PM, Baltimore, Weather by CustomWeather, © 2014

Note: Actual official high and low records may vary slightly from our data, if they occured in-between our weather recording intervals... More about our weather records

Advertising

Baltimore weather history for previous 24 hours

 ConditionsComfort  
Time TempWeatherWind HumidityBarometerVisibility
8:54 PM
Dec 18
34 °FMostly cloudy.5 mph64%30.10 "Hg10 mi
7:54 PM34 °FOvercast.5 mph64%30.10 "Hg10 mi
6:54 PM33 °FPartly cloudy.5 mph63%30.11 "Hg10 mi
5:54 PM35 °FPassing clouds.5 mph59%30.10 "Hg10 mi
4:54 PM35 °FPartly cloudy.3 mph59%30.09 "Hg10 mi
3:54 PM38 °FBroken clouds.10 mph53%30.07 "Hg10 mi
2:54 PM37 °FPartly sunny.14 mph54%30.09 "Hg10 mi
1:54 PM38 °FPartly sunny.14 mph53%30.09 "Hg10 mi
12:54 PM37 °FPartly sunny.16 mph54%30.10 "Hg10 mi
11:54 AM37 °FPartly sunny.12 mph52%30.13 "Hg10 mi
10:54 AM36 °FPartly sunny.13 mph54%30.16 "Hg10 mi
9:54 AM36 °FPartly sunny.13 mph52%30.16 "Hg10 mi
8:54 AM35 °FScattered clouds.12 mph52%30.15 "Hg10 mi
7:54 AM33 °FScattered clouds.9 mph56%30.14 "Hg10 mi
6:54 AM32 °FPassing clouds.8 mph56%30.12 "Hg10 mi
5:54 AM34 °FPassing clouds.15 mph52%30.11 "Hg10 mi
4:54 AM36 °FPassing clouds.12 mph48%30.09 "Hg10 mi
3:54 AM37 °FPassing clouds.9 mph50%30.07 "Hg10 mi
2:54 AM37 °FPassing clouds.9 mph50%30.07 "Hg10 mi
1:54 AM35 °FPassing clouds.14 mph54%30.05 "Hg10 mi
12:54 AM36 °FPassing clouds.10 mph54%30.05 "Hg10 mi
11:54 PM
Dec 17
38 °FPassing clouds.9 mph58%30.05 "Hg10 mi
10:54 PM36 °FPassing clouds.7 mph62%30.03 "Hg10 mi
Weather by CustomWeather, © 2014

See weather overviewHow to use our weather pages